Regional Weather Roundup
Issued by NWS Bismarck, ND

Home | Current Version | Previous Version | Text Only | Print | Product List | Glossary On
Versions: 1 2 3 4 5 6 7 8 9 10 11 12 13 14 15 16 17 18 19 20 21 22 23 24 25 26 27 28 29 30 31 32 33 34 35 36 37 38 39 40 41 42 43 44 45 46 47 48 49 50
000
ASUS43 KBIS 180959
RWRBIS

NWR BROADCAST TEXT
NATIONAL WEATHER SERVICE BISMARCK ND
400 AM CST THU DEC 18 2014

NOTE: "FAIR" INDICATES FEW OR NO CLOUDS BELOW 12,000 FEET WITH NO
SIGNIFICANT WEATHER AND/OR OBSTRUCTIONS TO VISIBILITY.


CITY           SKY/WX    TMP DP  RH WIND       PRES   REMARKS
WILLISTON      CLOUDY    21  16  81 SE5       30.02F WCI  15
MINOT          MOCLDY    12   8  84 SE5       30.09F WCI   4
MINOT AFB      NOT AVBL
BISMARCK       CLOUDY    16  13  88 SE12      30.13F WCI   3
DICKINSON      NOT AVBL
GARRISON         N/A     18  14  84 S12       30.07F WCI   5
HETTINGER ARPT CLOUDY    20  17  88 SE10      30.00F FOG     WCI   9
JAMESTOWN      NOT AVBL
CARRINGTON     FAIR      12  12 100 MISG      30.18S
CROSBY         CLOUDY    19  18  93 S7        30.04S WCI  10
HAZEN          CLOUDY    18  14  86 S10       30.09F WCI   6
OAKES            N/A     10  10 100 E7        30.22F WCI   0
WATFORD CITY   CLOUDY    19  18  93 SE8       30.01S WCI   9
$$

CITY           SKY/WX    TMP DP  RH WIND       PRES   REMARKS
GRAND FORKS    PTCLDY     3   0  87 CALM      30.29F
GRAND FORKS AF NOT AVBL
DEVILS LAKE    PTCLDY     9   0  66 SE6       30.17F WCI  -1
FARGO          CLEAR      8   4  83 CALM      30.28F
GWINNER        SUNNY     12  12 100 MISG      30.24F
ROLLA          FAIR       5   3  92 S9        30.14F WCI  -9
$$

CITY           SKY/WX    TMP DP  RH WIND       PRES   REMARKS
ABERDEEN       CLOUDY    17  12  80 S7        30.21F WCI   8
MOBRIDGE       CLOUDY    19  16  88 SE7       30.10F FOG     WCI  10
BUFFALO          N/A     24  20  84 S14       29.90S WCI  12
RAPID CITY     CLOUDY    23  20  88 S9        30.00R WCI  13
GLASGOW        CLOUDY    23  20  88 SE10      29.95S WCI  12
SIDNEY         MOCLDY    23  19  86 CALM      30.02S
WOLF POINT     CLOUDY    23  19  85 E6        29.99S WCI  16
GLENDIVE       CLOUDY    23  19  86 CALM      29.98S
MILES CITY     CLOUDY    25  22  88 CALM      29.95S
BAKER          CLOUDY    25  23  92 SE5       29.95S WCI  19
$$

CITY           SKY/WX    TMP DP  RH WIND       PRES   REMARKS
BILLINGS       CLEAR     23  18  81 SW15      29.95R WCI  10
GREAT FALLS    PTCLDY    31  24  75 S13       29.88S
$$




USA.gov is the U.S. government's official web portal to all federal, state and local government web resources and services.